Lapse_Rate
7.4 7.2 7.0 7.3 7.7 7.5 7.4 7.1 6.6 6.4 6.5 6.3 6.3 6.0 5.8 5.6 5.8 6.0 6.2 6.4 6.4 6.4 6.6 6.7 6.7 6.4 6.3 6.1 6.1 6.2 6.1 6.1 6.1 6.1 6.0 6.0 6.1 6.1 6.1 6.1 6.1 6.1 6.0 5.9 5.8 5.6 5.5 5.3 5.4
6.9 7.1 7.1 7.4 7.7 7.6 7.5 7.1 6.5 6.5 6.7 6.5 6.2 5.9 5.7 5.8 5.9 6.1 6.2 6.5 6.4 6.5 6.5 6.6 6.7 6.5 6.3 6.3 6.3 6.3 6.3 6.3 6.3 6.3 6.3 6.3 6.3 6.3 6.3 6.4 6.3 6.2 6.1 6.0 5.9 5.6 5.4 5.4 5.4
7.1 7.1 7.2 7.5 7.8 7.8 7.5 7.1 6.7 6.6 6.8 6.6 6.3 6.2 6.1 6.1 5.9 6.0 6.4 6.1 6.2 6.1 6.3 6.7 6.8 6.6 6.4 6.3 6.5 6.4 6.3 6.4 6.4 6.5 6.5 6.5 6.5 6.5 6.6 6.6 6.4 6.2 6.2 6.2 6.0 5.8 5.6 5.5 5.4
7.2 7.2 7.4 7.6 7.9 7.9 7.5 7.2 6.8 7.1 7.0 6.8 6.5 6.2 5.9 5.8 5.6 5.9 6.0 5.9 5.9 6.1 6.4 6.6 6.6 6.5 6.4 6.4 6.5 6.4 6.4 6.5 6.5 6.5 6.4 6.5 6.5 6.6 6.7 6.7 6.5 6.5 6.6 6.2 6.1 6.0 5.8 5.7 5.7
7.1 7.2 7.5 7.6 7.8 7.9 7.4 6.9 6.8 7.1 7.2 6.9 6.7 6.2 6.1 5.7 5.7 5.8 6.0 6.0 6.0 6.2 6.4 6.5 6.5 6.4 6.3 6.3 6.4 6.5 6.6 6.7 6.7 6.7 6.7 6.7 6.8 6.9 7.0 6.8 6.6 6.5 6.4 6.0 6.0 5.7 5.4 5.3 5.3
7.0 7.0 7.5 7.6 7.7 7.8 7.4 7.2 7.0 7.3 7.1 6.7 6.4 6.1 6.2 6.0 5.8 6.1 6.2 6.1 6.3 6.2 6.2 6.3 6.3 6.2 6.2 6.3 6.5 6.6 6.7 6.7 6.9 6.8 6.8 6.8 6.9 7.0 6.9 6.7 6.5 6.3 6.2 5.8 5.6 5.4 5.3 5.1 4.9
6.9 7.0 7.2 7.7 7.6 7.8 7.4 7.6 7.3 7.4 6.8 6.8 6.2 6.1 6.2 6.0 6.0 6.0 6.2 6.2 6.4 6.3 6.2 6.1 6.1 6.1 6.2 6.2 6.5 6.6 6.6 6.7 6.7 6.8 6.9 6.8 6.7 6.6 6.5 6.3 6.2 6.2 6.0 5.5 5.4 5.2 5.2 5.2 5.1
7.1 7.0 7.1 7.7 7.8 7.9 7.8 7.8 7.4 7.6 7.1 7.0 6.5 6.5 6.5 6.2 6.2 6.2 6.2 6.2 6.3 6.4 6.3 6.2 6.2 6.2 6.2 6.2 6.3 6.3 6.5 6.7 6.8 6.8 6.9 6.8 6.5 6.3 6.3 6.2 6.3 6.3 5.9 5.6 5.4 5.2 5.1 5.0 5.0
7.0 6.9 7.3 7.6 7.9 8.0 8.0 7.8 7.6 7.7 7.4 7.2 7.2 6.8 6.6 6.5 6.5 6.1 6.2 6.2 6.2 6.5 6.4 6.3 6.3 6.3 6.2 6.2 6.3 6.4 6.6 6.7 6.6 6.5 6.5 6.5 6.3 6.0 6.1 6.2 6.3 6.4 6.2 5.6 5.4 5.2 5.0 5.0 5.0
7.0 7.0 7.3 7.5 7.9 7.9 7.8 7.9 7.5 7.6 7.9 7.5 7.2 7.2 6.6 6.3 6.3 6.4 6.3 6.1 6.1 6.4 6.4 6.4 6.4 6.3 6.2 6.4 6.4 6.5 6.6 6.5 6.3 6.3 6.2 6.1 6.0 5.9 5.9 5.9 6.1 6.2 6.3 5.7 5.5 5.2 5.0 4.8 4.9
7.0 6.8 7.4 7.6 7.6 8.0 7.8 7.8 7.7 7.6 7.6 7.5 7.0 7.2 6.8 6.5 6.3 6.4 6.3 6.3 6.3 6.4 6.4 6.4 6.4 6.4 6.4 6.4 6.3 6.4 6.4 6.3 6.2 6.0 6.0 6.0 5.9 5.8 5.9 5.8 5.9 6.2 6.4 6.1 5.7 5.5 5.4 5.3 5.2
7.0 6.9 7.5 7.6 7.6 7.8 7.8 7.8 7.9 7.8 7.7 7.4 7.1 6.8 6.8 6.5 6.4 6.4 6.5 6.5 6.4 6.4 6.4 6.4 6.4 6.5 6.4 6.4 6.4 6.3 6.3 6.3 6.1 5.9 5.9 5.9 5.7 5.8 5.6 5.6 5.8 6.0 6.4 6.2 5.8 5.5 5.3 5.4 5.5
7.0 7.1 7.3 7.9 7.9 7.7 7.8 7.7 7.9 8.0 7.7 7.7 7.4 6.9 6.7 6.6 6.5 6.5 6.6 6.7 6.7 6.5 6.6 6.6 6.6 6.6 6.6 6.6 6.5 6.4 6.3 6.3 6.2 6.1 6.0 5.9 5.9 5.7 5.7 6.0 6.2 6.2 6.4 6.3 5.9 5.6 5.5 5.4 5.5
7.1 7.2 7.5 7.9 8.1 8.1 8.0 7.7 7.8 8.1 8.2 7.9 7.5 7.2 6.6 6.7 6.7 6.8 6.7 6.8 6.9 6.7 6.6 6.6 6.6 6.5 6.5 6.5 6.4 6.3 6.2 6.2 6.2 6.2 6.1 6.1 6.1 5.9 5.8 5.6 6.2 6.4 6.3 6.3 6.4 6.2 6.1 5.8 5.7
7.4 7.4 7.6 8.0 8.3 8.4 8.4 7.9 7.8 8.1 8.4 8.0 7.8 7.7 7.1 6.6 6.8 6.8 6.7 6.6 6.5 6.5 6.4 6.5 6.4 6.5 6.6 6.5 6.4 6.2 6.1 6.0 5.9 5.8 5.9 6.1 6.4 6.4 6.4 6.0 5.9 6.1 5.8 6.1 6.2 6.1 6.2 6.4 6.3
7.6 7.6 7.8 8.1 8.3 8.4 8.4 8.6 8.2 8.0 8.2 8.2 8.2 8.3 8.0 7.1 6.8 6.8 6.8 6.7 6.6 6.5 6.4 6.4 6.5 6.6 6.7 6.6 6.5 6.4 6.1 6.0 5.8 5.8 5.8 5.9 6.2 6.5 6.7 6.3 6.1 6.0 6.2 6.2 6.1 6.2 6.1 6.0 6.2
7.8 8.1 8.0 8.2 8.3 8.5 8.4 8.1 8.1 8.1 8.1 8.4 8.4 8.4 8.3 7.8 7.2 7.0 7.0 6.9 6.6 6.4 6.4 6.5 6.5 6.5 6.6 6.5 6.5 6.6 6.5 6.5 6.2 6.0 6.0 6.0 6.3 6.5 6.7 6.4 6.2 6.1 6.1 6.1 6.1 6.2 6.2 6.2 6.2
8.0 8.1 8.2 8.1 8.2 8.2 8.4 8.4 8.1 8.1 8.0 8.5 8.6 8.5 8.3 8.3 7.7 7.2 7.2 7.0 6.6 6.4 6.6 6.6 6.5 6.6 6.6 6.8 6.8 6.7 6.6 6.6 6.7 6.4 6.4 6.5 6.5 6.5 6.5 6.4 6.3 6.0 6.0 6.2 6.2 6.2 6.1 6.2 6.2
8.1 8.5 8.6 8.6 8.3 8.0 8.3 8.1 8.1 8.0 8.2 8.5 8.6 8.6 8.5 8.4 8.3 7.6 7.2 7.2 7.0 6.8 6.8 6.5 6.5 6.7 6.8 6.9 6.8 6.6 6.4 6.7 6.8 6.5 6.6 7.0 6.9 6.9 6.7 6.6 6.3 6.2 6.1 6.0 5.9 6.0 6.0 6.1 6.1
7.8 8.2 8.4 8.4 8.4 8.2 8.0 8.1 8.4 8.2 8.4 8.8 8.9 8.7 8.5 8.4 8.6 8.0 7.8 7.5 7.2 6.9 6.7 6.6 6.3 6.4 6.3 6.4 6.6 6.5 6.4 6.5 6.5 6.5 6.4 6.7 6.9 6.9 7.0 6.8 6.6 6.5 6.2 5.8 5.9 5.7 5.8 5.8 6.1
7.3 7.9 8.2 8.5 8.5 8.2 8.3 8.2 8.5 8.7 8.6 8.5 8.9 9.0 8.3 8.4 8.5 8.2 8.2 8.0 7.7 7.6 7.0 6.5 6.4 6.4 6.4 6.7 7.0 6.6 6.5 6.3 6.3 6.3 6.3 6.5 6.9 7.1 7.0 6.9 6.7 6.5 6.7 6.4 5.9 5.8 5.8 5.9 5.9
7.1 7.6 8.1 8.2 8.2 8.5 8.3 8.7 8.5 8.8 8.8 8.9 9.0 9.0 9.2 8.8 8.5 8.3 7.9 8.1 8.1 8.0 7.3 7.0 6.9 6.8 6.7 7.0 7.0 6.6 6.5 6.3 6.3 6.5 6.4 6.3 6.2 6.6 6.7 6.9 6.9 7.0 6.9 6.5 6.2 6.0 6.0 6.1 5.8
7.1 7.3 7.6 7.8 8.1 8.2 8.2 8.2 8.4 8.7 8.7 9.0 9.1 9.3 9.2 9.4 8.9 8.6 8.2 7.9 8.1 8.1 7.7 7.2 7.3 7.1 7.1 7.0 6.9 6.8 6.7 6.3 6.5 6.3 6.2 6.3 6.3 6.7 6.8 6.8 6.5 6.5 6.5 6.5 6.5 6.2 6.1 5.9 5.9
7.1 7.1 7.3 7.5 7.8 8.2 8.3 8.4 8.6 8.4 8.6 9.0 9.1 9.1 9.2 9.3 9.2 8.8 8.5 8.0 7.8 8.0 7.5 7.7 7.4 7.1 7.1 7.1 7.0 6.9 6.7 6.6 6.7 6.4 6.1 6.2 6.3 6.4 6.6 6.3 6.0 5.9 6.3 6.4 6.5 6.2 6.0 5.8 5.8
7.5 7.4 7.8 8.1 8.2 8.5 8.1 7.8 8.3 8.4 8.4 8.8 9.2 9.1 9.1 9.2 9.4 9.0 8.8 8.2 8.1 8.0 7.7 7.5 7.4 7.3 7.1 7.2 6.8 6.8 6.7 6.7 6.5 6.4 6.3 6.3 6.1 5.9 5.9 6.0 5.9 5.6 5.7 5.9 6.0 6.4 6.1 6.0 5.8
7.9 7.6 8.1 7.9 8.3 8.7 7.4 7.7 8.4 8.5 8.5 8.9 9.1 9.1 9.1 9.2 9.4 9.3 8.8 8.5 8.3 8.1 7.9 7.5 7.4 7.2 7.1 7.1 7.0 7.0 6.9 6.5 6.4 6.5 6.5 6.4 6.1 5.9 5.6 5.5 5.7 5.7 6.0 5.7 5.7 6.0 6.3 5.9 5.7
7.5 7.6 7.9 7.8 7.6 7.7 8.1 7.9 8.4 8.5 8.6 8.8 8.9 8.9 9.0 9.2 9.4 9.5 9.1 8.8 8.4 8.0 8.0 7.5 7.1 7.3 7.3 7.2 7.1 7.0 6.8 6.7 6.5 6.7 6.6 6.6 6.3 6.0 5.8 5.9 5.4 5.3 5.5 5.7 5.7 5.8 5.7 5.6 5.9
7.5 7.6 7.8 7.7 8.0 8.0 8.3 7.8 8.5 8.7 9.0 9.2 9.1 9.0 9.0 9.1 9.3 9.3 8.8 8.7 8.4 8.2 8.2 7.8 6.9 6.1 6.7 7.1 7.2 7.0 7.0 7.0 6.7 6.6 6.6 6.5 6.5 6.2 5.8 5.7 5.8 5.8 6.0 5.8 5.8 5.6 5.4 5.4 5.5
7.7 7.5 7.5 7.7 7.8 8.5 8.4 8.5 8.4 8.7 9.0 9.2 9.2 9.3 9.2 9.1 9.1 9.1 8.9 9.0 8.8 8.4 8.2 8.0 7.6 6.4 5.1 5.8 6.9 7.1 6.9 7.0 6.8 6.6 6.5 6.5 6.4 6.2 5.9 5.9 6.1 6.1 5.8 5.7 5.6 5.4 5.7 5.6 5.5
8.0 7.7 7.6 7.8 8.1 7.7 7.6 7.8 8.2 8.6 8.9 9.1 9.3 9.2 9.4 9.1 8.9 9.3 8.7 8.5 8.5 8.3 8.1 7.7 7.4 6.5 5.1 5.5 6.4 6.8 7.5 6.8 6.7 6.3 6.3 6.3 6.3 6.0 5.7 6.1 6.2 5.9 5.6 5.6 5.7 5.6 5.7 5.8 5.9
Wind_Speed
9 5 3 2 2 0 2 2 2 4 3 2 7 2 3 4 1 2 5 6 16 15 17 16 13 13 13 13 14 14 14 14 14 14 14 14 13 10 11 16 15 16 14 12 10 9 7 6 7
6 3 2 1 1 3 2 1 2 3 7 12 10 6 3 4 4 9 10 13 17 17 16 15 13 13 13 13 13 14 14 14 14 13 13 14 12 14 13 14 16 16 15 15 14 11 8 6 5
3 2 1 2 2 2 3 2 4 10 4 3 4 6 2 3 7 12 9 17 17 15 15 15 15 14 13 13 13 13 13 13 12 12 13 13 13 14 14 15 15 14 14 14 12 9 7 5 4
0 1 3 0 2 1 0 6 12 8 5 5 9 7 4 1 9 7 16 17 15 15 15 16 14 14 13 13 13 13 12 12 11 11 12 13 13 13 14 14 14 13 13 12 10 7 5 3 2
2 0 2 2 1 1 2 9 11 5 4 8 4 5 7 2 5 14 16 15 15 14 14 14 13 13 13 13 12 12 12 11 11 11 13 13 13 13 13 13 12 12 12 13 11 10 11 8 4
2 1 2 3 2 1 3 11 9 3 7 7 6 10 5 4 9 13 15 14 14 12 12 13 12 12 12 12 12 11 11 10 10 11 12 12 12 12 12 11 11 12 13 13 14 14 14 14 14
1 1 2 2 3 2 5 8 7 6 8 5 13 8 3 7 10 12 13 13 13 13 11 11 12 12 12 11 10 9 9 8 9 10 11 11 11 12 11 10 9 10 11 11 10 11 13 12 14
2 1 4 3 3 3 6 8 6 6 5 12 9 6 8 10 14 13 13 13 11 9 10 10 10 12 11 12 10 9 8 7 7 7 9 10 10 9 10 8 8 8 9 9 7 7 8 10 12
2 1 1 1 3 0 8 8 5 5 12 4 2 6 12 19 16 14 13 13 10 9 9 10 10 11 10 10 11 10 8 8 6 6 6 6 5 5 6 7 7 7 7 6 7 6 4 8 8
2 2 3 2 3 3 12 11 10 6 12 5 7 12 18 18 17 17 16 14 13 13 11 10 11 12 11 10 11 11 11 10 7 5 4 3 2 2 2 2 4 5 6 6 6 7 3 3 4
4 2 1 2 7 7 14 9 7 12 9 6 14 18 19 18 15 15 14 14 15 13 11 12 11 12 12 10 9 9 9 8 8 7 5 3 2 1 0 1 1 3 4 2 4 4 2 4 3
4 5 5 3 5 11 13 9 9 9 3 7 18 19 18 17 17 16 16 15 14 14 14 13 14 12 12 9 10 9 8 8 8 7 5 4 4 1 2 2 2 1 0 2 3 4 3 4 2
6 5 6 6 7 11 12 11 5 10 7 13 19 18 18 18 18 14 12 12 14 14 14 14 14 12 13 11 10 9 9 9 9 7 7 6 2 2 2 3 3 3 2 2 2 3 3 4 4
7 4 4 4 7 9 16 6 5 6 13 15 19 19 17 18 17 14 13 14 15 14 14 14 14 13 14 10 11 9 10 10 9 9 9 8 6 3 3 3 4 3 3 5 4 4 5 4 4
1 3 2 4 8 6 11 4 12 10 14 17 18 17 16 17 16 18 17 16 16 13 13 14 14 15 13 12 12 11 11 10 9 9 9 9 8 5 3 3 4 1 1 4 5 5 4 4 5
4 1 3 2 10 4 14 15 13 11 16 17 17 16 16 18 19 18 16 14 14 13 15 14 13 15 14 12 11 10 9 9 9 8 9 9 8 8 8 4 3 2 4 6 4 3 3 4 4
1 5 3 6 5 7 13 7 9 10 15 17 17 16 16 16 17 17 18 17 17 16 15 16 16 16 16 11 10 11 11 11 10 9 9 9 10 9 6 5 4 4 3 4 4 3 2 3 4
7 6 3 4 10 11 15 8 3 11 16 17 17 16 16 16 19 19 19 18 17 16 16 15 13 14 13 8 7 6 6 8 11 11 11 10 9 10 9 6 4 4 3 3 4 4 4 3 4
2 4 7 4 4 9 16 18 11 11 14 16 17 17 18 18 18 15 16 17 15 14 15 16 15 15 10 9 8 8 8 8 7 9 12 11 11 12 10 7 6 6 4 3 4 3 5 4 3
2 4 2 2 2 9 12 18 20 12 19 22 21 18 19 19 16 15 15 14 16 17 17 15 16 14 12 10 8 7 6 6 5 7 9 11 10 11 10 8 6 6 4 4 5 6 3 3 5
3 5 5 3 2 1 2 6 9 10 16 17 19 20 18 20 18 18 15 15 15 16 16 15 16 15 14 14 8 5 4 2 4 5 6 9 13 12 10 10 8 7 6 4 5 6 6 5 3
6 11 7 7 7 6 6 6 5 8 10 16 20 20 22 22 20 19 18 16 17 18 14 15 14 15 14 14 12 12 9 9 8 6 8 7 11 10 12 11 11 7 5 6 6 5 5 4 5
3 5 6 5 8 4 7 5 5 4 7 15 19 24 25 25 24 22 21 20 19 15 15 14 13 14 13 14 14 11 11 6 4 5 6 5 6 9 9 10 8 8 6 5 5 5 5 4 3
6 4 3 2 3 8 10 9 7 6 6 6 14 21 25 26 25 24 21 17 16 14 13 13 15 15 14 14 14 13 12 9 6 6 5 5 4 5 7 8 9 6 4 5 6 4 2 4 5
4 5 5 7 7 10 2 6 11 8 13 14 14 12 18 22 22 23 22 20 18 17 16 14 14 15 14 14 13 12 12 10 10 8 6 5 3 4 5 5 5 3 4 2 5 3 3 4 6
5 4 7 9 10 9 4 5 5 6 11 11 10 12 12 19 21 24 24 21 20 18 18 16 16 12 14 15 13 11 12 8 8 7 4 4 3 3 4 3 3 3 4 4 4 4 1 2 4
3 6 2 2 2 4 4 4 11 7 13 13 12 8 12 18 21 25 22 18 15 9 7 2 5 3 12 14 11 11 10 9 7 6 6 5 3 2 2 1 2 5 5 5 6 4 2 1 2
5 4 3 1 7 10 5 4 5 10 12 9 12 9 11 11 14 13 11 9 12 16 15 14 13 8 9 10 9 8 8 6 5 5 6 5 6 4 4 4 4 8 8 6 5 3 1 2 2
4 3 1 2 3 7 9 6 4 10 10 13 9 7 9 8 2 9 9 15 17 16 15 14 15 7 16 6 8 8 6 6 6 6 6 6 4 4 5 7 8 8 7 5 4 4 2 3 3
3 2 2 4 3 2 4 9 4 9 11 11 10 5 4 1 6 12 15 16 17 15 13 12 14 10 7 6 7 10 8 7 7 7 6 6 9 9 8 8 6 5 5 5 5 4 2 4 5
Wind_Direction
137 149 181 205 200 144 87 67 344 76 102 70 131 195 129 55 1 51 133 159 144 145 146 147 146 136 125 114 106 100 98 97 94 90 87 87 89 87 80 75 81 75 77 74 80 84 84 102 102
139 174 175 113 123 115 98 154 264 63 106 109 97 107 86 91 79 121 141 154 151 146 147 145 142 132 124 116 110 107 107 103 97 93 91 92 89 80 79 80 79 74 72 71 68 68 75 98 107
113 352 273 59 80 79 85 169 125 114 107 145 109 57 62 78 121 145 134 153 149 145 143 140 140 138 130 122 114 108 104 100 96 92 90 92 92 89 84 81 80 79 74 71 68 64 67 81 102
140 158 115 21 91 139 185 146 137 129 86 68 108 76 89 125 147 158 149 151 146 146 148 137 146 140 132 123 118 114 110 102 94 89 87 89 88 87 83 82 80 74 68 62 57 51 44 54 85
44 46 90 97 262 268 215 154 150 135 102 104 75 113 106 77 117 139 149 152 148 147 149 148 146 140 131 125 122 123 121 116 108 98 92 92 90 88 87 86 81 74 63 58 53 60 59 71 88
103 294 142 168 220 240 167 157 143 142 116 123 114 128 114 106 135 146 150 150 149 147 150 146 145 141 135 131 132 133 129 122 110 101 98 97 98 96 93 89 81 72 66 62 63 64 64 63 72
146 154 119 166 245 246 166 164 157 140 128 118 133 132 108 152 141 145 147 146 149 150 151 151 152 149 140 140 141 139 135 125 114 101 98 100 95 88 87 86 76 72 70 64 60 66 77 77 82
126 130 154 220 237 250 158 156 149 137 105 128 153 167 166 160 146 144 148 149 150 154 161 162 163 159 159 149 148 149 148 138 122 114 99 94 92 88 90 101 85 80 67 62 62 84 89 96 96
167 183 114 211 229 94 162 170 128 100 137 141 144 147 131 142 146 146 155 160 161 170 180 173 174 171 164 158 157 164 162 156 159 144 118 111 98 84 99 88 101 91 73 60 77 78 113 105 100
184 210 176 213 236 221 181 187 145 134 153 138 97 105 131 147 157 163 170 175 178 180 186 184 184 182 173 174 169 170 174 173 173 166 155 140 114 85 31 56 98 95 96 71 51 39 110 172 116
166 184 202 218 232 201 172 179 158 137 182 194 162 152 154 158 171 176 180 185 185 183 187 193 189 191 186 182 181 185 183 177 187 191 190 182 206 172 141 252 234 130 113 130 62 36 95 157 154
185 239 236 308 155 170 178 160 156 156 123 190 163 164 163 170 179 187 185 187 186 191 193 189 194 194 196 188 193 193 191 191 193 197 203 216 225 225 239 233 259 267 116 85 68 50 89 150 160
209 219 214 254 192 203 164 192 174 172 95 140 149 166 178 183 189 194 191 191 188 193 195 198 194 194 194 195 197 199 204 200 197 192 204 221 230 275 254 217 243 234 222 182 126 122 143 165 184
184 220 287 298 228 209 188 174 194 115 132 145 159 177 185 195 193 192 201 199 196 194 198 199 200 199 194 197 201 203 208 208 204 202 211 215 225 249 224 229 220 242 227 186 177 173 174 187 208
177 212 155 32 158 176 173 192 221 140 151 161 179 184 191 204 198 206 206 208 199 198 195 201 199 202 201 201 203 207 213 210 211 211 215 221 221 225 240 235 251 212 315 189 171 171 182 208 219
192 169 224 116 173 167 193 224 204 159 166 175 190 191 199 206 212 212 211 214 210 206 199 198 199 201 205 205 200 208 214 219 227 221 224 228 229 214 203 227 242 205 199 185 180 175 191 226 238
91 195 176 156 193 169 202 234 215 176 190 186 191 198 205 210 217 221 219 214 210 207 202 201 200 203 205 202 203 211 213 218 226 224 230 236 233 213 193 219 228 188 171 172 177 187 240 226 239
187 171 158 163 192 191 194 231 200 192 197 204 201 201 206 215 222 217 217 218 217 210 208 204 202 208 200 195 202 220 226 230 231 231 227 228 218 203 203 213 212 209 198 188 192 200 202 238 242
125 159 162 161 183 181 212 225 221 201 213 214 213 210 211 219 221 220 217 214 213 213 211 206 201 204 191 192 196 221 225 228 233 230 227 218 209 200 194 200 188 191 196 215 219 219 219 223 223
150 146 213 307 247 215 214 229 236 209 217 216 216 215 216 222 224 220 218 208 207 206 208 203 210 200 198 199 196 209 204 222 231 227 218 220 201 204 204 201 193 180 187 207 202 215 217 234 198
198 211 181 147 49 288 334 259 241 227 235 227 230 227 226 225 222 230 220 210 211 213 204 202 206 194 197 200 191 179 178 179 210 219 218 215 213 205 214 195 194 178 192 209 220 214 205 259 228
216 211 208 157 181 229 202 239 244 234 245 220 223 219 222 227 224 230 227 215 212 216 205 202 196 192 196 191 195 196 205 211 216 216 217 217 217 208 203 210 192 187 202 197 207 211 215 199 245
200 137 193 177 205 201 197 249 228 227 226 225 221 220 221 220 225 221 225 226 220 212 202 195 184 189 191 193 194 196 214 223 209 211 236 210 218 213 206 216 213 190 196 216 204 177 204 218 254
131 126 82 98 173 229 218 228 225 227 230 250 234 223 221 217 221 225 222 226 225 214 202 193 187 192 190 197 196 200 213 218 214 212 222 221 209 208 199 212 229 227 182 215 224 175 191 239 232
206 179 205 216 217 246 129 213 254 234 238 239 261 247 228 222 219 219 214 213 214 205 194 193 192 189 192 204 205 206 215 215 227 227 221 214 210 204 185 192 235 193 199 183 242 182 193 243 256
185 212 236 228 228 239 142 221 236 258 274 251 257 274 263 223 217 215 211 207 207 199 191 190 190 180 181 197 206 203 215 214 216 224 205 211 192 175 146 174 215 121 114 127 184 109 129 253 262
141 221 335 159 86 253 246 252 277 274 260 260 268 270 253 234 222 221 217 207 208 188 148 124 9 176 180 186 191 201 203 204 201 190 169 180 167 149 126 217 202 126 109 109 95 80 74 257 265
242 131 205 217 239 251 222 246 253 280 273 271 273 304 313 286 242 224 211 169 120 125 111 100 82 321 240 164 180 187 188 189 174 174 153 147 138 144 152 154 114 84 76 74 73 75 79 277 298
158 192 174 277 252 265 270 260 230 272 291 287 282 307 320 329 158 141 135 133 139 132 129 121 139 193 324 141 151 139 143 142 133 129 128 133 141 146 123 100 92 94 93 93 96 76 44 351 337
311 305 206 256 241 256 294 266 222 266 283 285 289 302 13 34 153 143 146 145 130 127 126 110 115 104 210 281 126 111 118 135 124 119 129 132 115 110 112 106 103 100 94 76 69 57 23 315 310